Regional Weather Roundup
Issued by NWS

Home | Current Version | Previous Version | Text Only | Print | Product List | Glossary On
Versions: 1 2 3 4 5 6 7 8 9 10 11 12 13 14 15 16 17 18 19 20 21 22 23 24 25 26 27 28 29 30 31 32 33 34 35 36 37 38 39 40 41 42 43 44 45 46 47 48 49 50
000
ASCA44 KEWX 230120
RWRMX

LATIN AMERICA AND CARIBBEAN REGIONAL WEATHER ROUNDUP
NATIONAL WEATHER SERVICE AUSTIN/SAN ANTONIO TX
800 PM CDT WED OCT 22 2014

NOTE: "FAIR" INDICATED FEW OR NO CLOUDS BELOW 12,000 FEET WITH NO
SIGNIFICANT WEATHER AND/OR OBSTRUCTIONS TO VISIBILITY.

BAJA CALIFORNIA

CITY           SKY/WX    TMP DP  RH WIND       PRES   REMARKS
LORETO         PTCLDY    82  70  65 CALM      29.81
LA PAZ         MOCLDY    84  59  42 N6        29.83
MEXICALI       CLEAR     91  45  19 SE3       29.85
S.J. DEL CABO  CLEAR     81  66  61 CALM      29.85R
TIJUANA        PTCLDY    73  59  60 W7        29.93S

NORTHWESTERN MEXICO

CITY           SKY/WX    TMP DP  RH WIND       PRES   REMARKS
CULIACAN       MOCLDY    86  72  62 W12       29.80  HX  92
DURANGO        LGT RAIN  63  57  82 S6        30.16R
GUAYMAS        CLEAR     84  73  70 S12       29.76  HX  91
HERMOSILLO     CLEAR     90  52  27 S5        29.83
CD. JUAREZ     CLEAR     72  55  56 CALM      30.03
LOS MOCHIS     CLEAR     82  68  61 W12       29.82R
OBREGON        CLEAR     86  59  39 SW8       29.78

NORTHEASTERN MEXICO

CITY           SKY/WX    TMP DP  RH WIND       PRES   REMARKS
CHIHUAHUA      PTCLDY    64  55  72 NE3       30.12
MATAMOROS      PTCLDY    75  72  88 CALM      30.00
MONTERREY      PTCLDY    72  68  88 NE8       30.01R
NUEVO LAREDO   MOCLDY    82  63  51 E6        30.00
REYNOSA        MOCLDY    75  66  73 E6        30.00
SALTILLO       MOCLDY    64  59  82 N7        30.17R
TORREON        MOCLDY    73  59  60 N5        30.04R
CD. VICTORIA   PTCLDY    75  70  83 E2        29.99

WESTERN MEXICO

CITY           SKY/WX    TMP DP  RH WIND       PRES   REMARKS
AGUASCALIENTES PTCLDY    68  48  49 E9        30.16
COLIMA         MOCLDY    72  70  94 CALM      29.94R
DEL BAJIO      PTCLDY    70  54  56 N8        30.18
GUADALAJARA    MOCLDY    72  59  64 CALM      30.06
MANZANILLO     CLOUDY    77  75  94 CALM      29.78S
MAZATLAN       CLEAR     79  64  61 W8        29.78R
P. VALLARTA    CLOUDY    79  77  94 E3        29.81R
URUAPAN        CLOUDY    64  64 100 CALM      30.11R
ZACATECAS      MOCLDY    66  46  48 SE7       30.21R

CENTRAL MEXICO

CITY           SKY/WX    TMP DP  RH WIND       PRES   REMARKS
MEXICO CITY    PTCLDY    64  50  59 N15       30.25R
MORELIA        MOCLDY    64  61  88 CALM      30.13
POZA RICA      CLOUDY    77  72  83 NE8       29.97
QUERETARO      MOCLDY    64  54  68 NE15      30.18F
S. LUIS POTOSI PTCLDY    63  52  67 E9        30.21R
TAMPICO        PTCLDY    79  73  83 N7        29.94R
TOLUCA         MOCLDY    59  45  58 SE7       30.29R

SOUTHERN MEXICO

CITY           SKY/WX    TMP DP  RH WIND       PRES   REMARKS
ACAPULCO       MOCLDY    79  75  89 CALM      29.80R
OAXACA         MOCLDY    70  54  56 W9        30.11R
VERACRUZ       MOCLDY    79  72  78 N23G35    29.85R
ZIHUATANEJO    CLOUDY    82  75  78 CALM      29.81R

YUCATAN PENINSULA

CITY           SKY/WX    TMP DP  RH WIND       PRES   REMARKS
CAMPECHE       CLOUDY    77  77 100 E6        29.74R
CANCUN         RAIN      77  75  94 CALM      29.81R
CHETUMAL       MOCLDY    77  75  94 CALM      29.77R
CD. DEL CARMEN CLOUDY    81  75  83 N10       29.73
COZUMEL        LGT RAIN  73  73 100 CALM      29.80R
MERIDA         MOCLDY    77  75  94 NE5       29.78R
TAPACHULA      MOCLDY    79  75  89 CALM      29.82R
TUX. GUTIERREZ LGT RAIN  72  72 100 CALM      29.90R FOG
VILLAHERMOSA   MOCLDY    77  75  94 CALM      29.81R

CENTRAL AMERICA

CITY           SKY/WX    TMP DP  RH WIND       PRES   REMARKS
MANAGUA        PTCLDY    81  75  83 CALM      29.80R

CARIBBEAN

CITY           SKY/WX    TMP DP  RH WIND       PRES   REMARKS
ARUBA          PTCLDY    84  77  79 E14       29.86R HX  94
CURACAO        PTCLDY    82  77  83 SE8       29.89R HX  91
KINGSTON       LGT RAIN  81  77  89 S13       29.86S
SAN JUAN       PTCLDY    82  73  74 E5        29.96R
SANTO DOMINGO  PTCLDY    77  72  83 CALM      29.92R
ST. KITTS      PTCLDY    82  75  78 NE6       29.94S
ST. MAARTEN    PTCLDY    82  73  74 E12       29.94S
ST. THOMAS     PTCLDY    81  73  78 E6        29.96

$$




USA.gov is the U.S. government's official web portal to all federal, state and local government web resources and services.